Debrecen, Hungary

4:34 PM CEST on September 25, 2016 (GMT +0200)
Debrecen

Weather History for LHDC - March, 2014

Change the Weather History Date:

Sunday, March 9, 2014

  Actual Average Record
Temperature  
Mean Temperature 48 °F -  
Max Temperature 57 °F - - ()
Min Temperature 39 °F - - ()
Degree Days  
Heating Degree Days 17    
Moisture  
Dew Point 33 °F    
Average Humidity 52    
Maximum Humidity 81    
Minimum Humidity 27    
Precipitation  
Precipitation 0.00 in - - ()
Sea Level Pressure  
Sea Level Pressure 30.45 in    
Wind  
Wind Speed 16 mph ()    
Max Wind Speed 22 mph    
Max Gust Speed 31 mph    
Visibility 15.0 miles    
Events      
T = Trace of Precipitation, MM = Missing Value Source: Averaged Metar Reports

Daily Weather History Graph

Daily Weather History Graph

Search for Another Location

Airport or City:

Trip Planner

Search our weather history database for the weather conditions in past years. The results will help you decide how hot, cold, wet, or windy it might be!

Date:

Astronomy

Mar. 09, 2014 Rise Set
Actual Time 5:59 AM CET 5:29 PM CET
Civil Twilight 5:28 AM CET 6:00 PM CET
Nautical Twilight 4:52 AM CET 6:36 PM CET
Astronomical Twilight 4:16 AM CET 7:12 PM CET
Moon 10:49 AM CET (3/9) 1:27 AM CET (3/9)
Length of Visible Light 12h 32m
Length of Day
11h 30m
First Quarter, 59% of the Moon is Illuminated
Mar 9
First Quarter
Mar 16
Full
Mar 24
Last Quarter
Mar 30
New
Apr 7
First Quarter

Hourly Weather History & Observations

Time (CET) Temp. Windchill Dew Point Humidity Pressure Visibility Wind Dir Wind Speed Gust Speed Precip Events Conditions
12:00 AM 41 °F - 34 °F 69% 30.43 in - NNE 17.9 mph - -  
1:00 AM 40 °F - 34 °F 72% 30.44 in - NNE 15.7 mph - -  
2:00 AM 41 °F - 34 °F 67% 30.45 in - NNE 17.9 mph - -  
3:00 AM 40 °F - 34 °F 71% 30.44 in - NNE 17.9 mph - -  
4:00 AM 40 °F - 34 °F 71% 30.44 in - NE 20.1 mph - -  
5:00 AM 40 °F - 33 °F 69% 30.45 in - NE 17.9 mph - -  
5:15 AM 39.2 °F 30.5 °F 33.8 °F 81% 30.45 in - NNE 16.1 mph - N/A   Clear
5:45 AM 39.2 °F 31.2 °F 33.8 °F 81% 30.45 in - NNE 13.8 mph - N/A   Clear
6:00 AM 39 °F - 33 °F 73% 30.46 in 16 mi NNE 13.4 mph - -   Partly Cloudy
6:00 AM - - - N/A% - - NE 17.3 mph 28.8 mph N/A   Clear
6:15 AM 39.2 °F 32.0 °F 33.8 °F 81% 30.45 in - NNE 11.5 mph - N/A   Clear
6:45 AM 39.2 °F 30.8 °F 33.8 °F 81% 30.48 in - NNE 15.0 mph - N/A   Clear
7:00 AM 40 °F - 33 °F 69% 30.48 in 12 mi NNE 15.7 mph - -   Partly Cloudy
7:15 AM 41.0 °F 33.1 °F 33.8 °F 76% 30.48 in - NNE 15.0 mph - N/A   Clear
7:45 AM 42.8 °F 35.4 °F 33.8 °F 70% 30.48 in - NNE 15.0 mph - N/A   Clear
8:00 AM 43 °F - 34 °F 62% 30.49 in 12 mi NNE 15.7 mph - -   Partly Cloudy
8:15 AM 44.6 °F 36.9 °F 35.6 °F 71% 30.48 in - NNE 18.4 mph - N/A   Clear
8:45 AM 46.4 °F 39.2 °F 35.6 °F 66% 30.48 in - NNE 18.4 mph - N/A   Clear
9:00 AM 46 °F - 35 °F 56% 30.49 in 19 mi NNE 17.9 mph - -   Partly Cloudy
9:00 AM - - - N/A% - - NE 18.4 mph 29.9 mph N/A   Dust Whirls
9:15 AM 48.2 °F - 35.6 °F 62% 30.48 in - NNE 15.0 mph - N/A   Clear
9:45 AM 50.0 °F - 35.6 °F 58% 30.48 in - NNE 16.1 mph - N/A   Clear
9:48 AM 50.0 °F - 35.6 °F 58% 30.48 in - NNE 18.4 mph - N/A   Unknown
10:00 AM 50 °F - 36 °F 48% 30.48 in 25 mi NNE 15.7 mph - -   Partly Cloudy
10:15 AM 51.8 °F - 35.6 °F 54% 30.48 in 6.2 mi NE 18.4 mph - N/A   Partly Cloudy
10:45 AM 53.6 °F - 33.8 °F 47% 30.48 in 6.2 mi NE 18.4 mph - N/A   Partly Cloudy
11:00 AM 53 °F - 34 °F 36% 30.48 in 19 mi NE 17.9 mph - -   Partly Cloudy
11:15 AM 53.6 °F - 33.8 °F 47% 30.48 in 6.2 mi ENE 18.4 mph - N/A   Partly Cloudy
11:45 AM 55.4 °F - 33.8 °F 44% 30.45 in - ENE 18.4 mph - N/A   Clear
12:00 PM 56 °F - 33 °F 29% 30.46 in 19 mi ENE 17.9 mph - -   Partly Cloudy
12:00 PM - - - N/A% - - ENE 19.6 mph 31.1 mph N/A   Clear
12:15 PM 55.4 °F - 33.8 °F 44% 30.45 in - NE 18.4 mph - N/A   Clear
12:45 PM 57.2 °F - 32.0 °F 38% 30.45 in - ENE 17.3 mph - N/A   Clear
1:00 PM 57 °F - 33 °F 28% 30.45 in 19 mi ENE 17.9 mph - -   Partly Cloudy
1:15 PM 57.2 °F - 33.8 °F 41% 30.45 in - NE 18.4 mph - N/A   Clear
1:45 PM 57.2 °F - 32.0 °F 38% 30.42 in - NE 18.4 mph - N/A   Clear
2:00 PM 57 °F - 33 °F 28% 30.43 in 19 mi NE 17.9 mph - -   Partly Cloudy
2:15 PM 57.2 °F - 33.8 °F 41% 30.42 in - NNE 19.6 mph - N/A   Clear
2:45 PM 57.2 °F - 33.8 °F 41% 30.42 in - NE 20.7 mph - N/A   Clear
3:00 PM 58 °F - 33 °F 27% 30.42 in 19 mi NE 20.1 mph - -   Partly Cloudy
3:15 PM 57.2 °F - 32.0 °F 38% 30.42 in - NE 21.9 mph - N/A   Clear
3:45 PM 57.2 °F - 32.0 °F 38% 30.42 in - NE 19.6 mph - N/A   Clear
4:00 PM 56 °F - 32 °F 28% 30.42 in 19 mi NE 20.1 mph - -   Partly Cloudy
4:15 PM 55.4 °F - 32.0 °F 41% 30.42 in - NE 19.6 mph - N/A   Clear
4:45 PM 53.6 °F - 30.2 °F 41% 30.42 in - ENE 21.9 mph - N/A   Clear
5:00 PM 54 °F - 30 °F 28% 30.43 in 19 mi ENE 20.1 mph - -   Partly Cloudy
5:00 PM - - - N/A% - - North - - N/A   Unknown
6:00 PM 51 °F - 31 °F 33% 30.44 in - ENE 17.9 mph - -  
7:00 PM 49 °F - 31 °F 37% 30.45 in - NE 13.4 mph - -  
8:00 PM 45 °F - 29 °F 42% 30.45 in - NE 8.9 mph - -  
9:00 PM 44 °F - 28 °F 40% 30.45 in - NE 11.2 mph - -  
10:00 PM 43 °F - 28 °F 42% 30.46 in - NE 11.2 mph - -  
11:00 PM 42 °F - 27 °F 44% 30.47 in - NE 11.2 mph - -